• In Schweiz
  • Länderverzeichnis
  • Für 7 Tage
  • Wassertemperatur
  • Satellitenkarten
  • Wetterkarte
  • Widgets
  • user-avatar
    Anmelden

    Stündliche Wetter Chinandega

    Heute, 24 November, Freitag

    Zeit Temperatur Niederschläge Wind Luftdruck Luftfeuchtigkeit
    00:00 +25°C° 0 mm 1 m/S 755 mmHg 78%
    01:00 +25°C° 0 mm 2 m/S 755 mmHg 78%
    02:00 +25°C° 0 mm 2 m/S 755 mmHg 78%
    03:00 +24°C° 0 mm 2 m/S 755 mmHg 79%
    04:00 +24°C° 0 mm 2 m/S 755 mmHg 78%
    05:00 +24°C° 0 mm 2 m/S 755 mmHg 78%
    06:00 +24°C° 0 mm 2 m/S 755 mmHg 77%
    07:00 +26°C° 0 mm 2 m/S 755 mmHg 70%
    08:00 +28°C° 0 mm 2 m/S 755 mmHg 63%
    09:00 +30°C° 0 mm 2 m/S 756 mmHg 56%
    10:00 +32°C° 0 mm 2 m/S 755 mmHg 53%
    11:00 +33°C° 0 mm 1 m/S 755 mmHg 49%
    12:00 +35°C° 0 mm 1 m/S 754 mmHg 45%
    13:00 +36°C° 0 mm 2 m/S 754 mmHg 47%
    14:00 +35°C° 0 mm 2 m/S 753 mmHg 48%
    15:00 +35°C° 0 mm 3 m/S 753 mmHg 50%
    16:00 +32°C° 0 mm 2 m/S 753 mmHg 56%
    17:00 +30°C° 0 mm 2 m/S 753 mmHg 63%
    18:00 +28°C° 0 mm 2 m/S 753 mmHg 69%
    19:00 +28°C° 0 mm 1 m/S 754 mmHg 70%
    20:00 +27°C° 0 mm 1 m/S 755 mmHg 72%
    21:00 +27°C° 0 mm 1 m/S 755 mmHg 73%
    22:00 +27°C° 0 mm 1 m/S 756 mmHg 74%
    23:00 +26°C° 0 mm 1 m/S 756 mmHg 75%

    Morgen, 25 November, Samstag

    Zeit Temperatur Niederschläge Wind Luftdruck Luftfeuchtigkeit
    00:00 +26°C° 0 mm 1 m/S 756 mmHg 75%
    01:00 +26°C° 0 mm 2 m/S 756 mmHg 75%
    02:00 +26°C° 0 mm 2 m/S 755 mmHg 75%
    03:00 +25°C° 0 mm 2 m/S 755 mmHg 75%
    04:00 +25°C° 0 mm 2 m/S 755 mmHg 75%
    05:00 +25°C° 0 mm 2 m/S 755 mmHg 76%
    06:00 +24°C° 0 mm 2 m/S 755 mmHg 76%
    07:00 +27°C° 0 mm 2 m/S 756 mmHg 70%
    08:00 +29°C° 0 mm 2 m/S 756 mmHg 63%
    09:00 +31°C° 0 mm 2 m/S 757 mmHg 57%
    10:00 +32°C° 0 mm 2 m/S 756 mmHg 54%
    11:00 +34°C° 0 mm 1 m/S 756 mmHg 51%
    12:00 +35°C° 0 mm 1 m/S 755 mmHg 47%
    13:00 +35°C° 0 mm 1 m/S 754 mmHg 50%
    14:00 +35°C° 0 mm 2 m/S 754 mmHg 52%
    15:00 +35°C° 0 mm 2 m/S 753 mmHg 54%
    16:00 +32°C° 0 mm 2 m/S 753 mmHg 59%
    17:00 +31°C° 0 mm 2 m/S 754 mmHg 64%
    18:00 +29°C° 0 mm 1 m/S 754 mmHg 69%
    19:00 +29°C° 0 mm 1 m/S 755 mmHg 72%
    20:00 +28°C° 0 mm 1 m/S 755 mmHg 74%
    21:00 +27°C° 0 mm 1 m/S 756 mmHg 76%
    22:00 +27°C° 0 mm 1 m/S 756 mmHg 78%
    23:00 +26°C° 0 mm 1 m/S 756 mmHg 79%

    übermorgen, 26 November, Sonntag

    Zeit Temperatur Niederschläge Wind Luftdruck Luftfeuchtigkeit
    00:00 +26°C° 0 mm 1 m/S 756 mmHg 80%
    01:00 +26°C° 0 mm 1 m/S 756 mmHg 80%
    02:00 +26°C° 0 mm 1 m/S 755 mmHg 80%
    03:00 +25°C° 0 mm 1 m/S 755 mmHg 80%
    04:00 +25°C° 0 mm 2 m/S 755 mmHg 79%
    05:00 +25°C° 0 mm 2 m/S 756 mmHg 79%
    06:00 +25°C° 0 mm 2 m/S 756 mmHg 78%
    07:00 +27°C° 0 mm 2 m/S 756 mmHg 71%
    08:00 +29°C° 0 mm 2 m/S 756 mmHg 65%
    09:00 +31°C° 0 mm 2 m/S 757 mmHg 58%
    10:00 +32°C° 0 mm 2 m/S 756 mmHg 55%
    11:00 +34°C° 0 mm 1 m/S 756 mmHg 51%
    12:00 +35°C° 0 mm 1 m/S 755 mmHg 48%
    13:00 +36°C° 0 mm 2 m/S 754 mmHg 50%
    14:00 +35°C° 0 mm 2 m/S 753 mmHg 53%
    15:00 +34°C° 0 mm 3 m/S 752 mmHg 56%
    16:00 +32°C° 0 mm 2 m/S 753 mmHg 61%
    17:00 +30°C° 0 mm 2 m/S 753 mmHg 67%
    18:00 +29°C° 0 mm 1 m/S 754 mmHg 72%
    19:00 +28°C° 0,2 mm 1 m/S 754 mmHg 75%
    20:00 +28°C° 0,2 mm 1 m/S 755 mmHg 78%
    21:00 +27°C° 0,2 mm 1 m/S 756 mmHg 81%
    22:00 +27°C° 0,7 mm 1 m/S 756 mmHg 81%
    23:00 +26°C° 0,7 mm 1 m/S 755 mmHg 81%

    27 November, Montag

    Zeit Temperatur Niederschläge Wind Luftdruck Luftfeuchtigkeit
    00:00 +26°C° 0,7 mm 1 m/S 755 mmHg 81%
    01:00 +25°C° 0,1 mm 1 m/S 755 mmHg 81%
    02:00 +25°C° 0,1 mm 2 m/S 755 mmHg 81%
    03:00 +25°C° 0,1 mm 2 m/S 754 mmHg 81%
    04:00 +25°C° 0 mm 2 m/S 754 mmHg 81%
    05:00 +24°C° 0 mm 2 m/S 755 mmHg 81%
    06:00 +24°C° 0 mm 3 m/S 755 mmHg 81%
    07:00 +26°C° 0 mm 3 m/S 755 mmHg 73%
    08:00 +28°C° 0 mm 3 m/S 756 mmHg 65%
    09:00 +30°C° 0 mm 3 m/S 756 mmHg 57%
    10:00 +32°C° 0 mm 2 m/S 756 mmHg 52%
    11:00 +35°C° 0 mm 2 m/S 755 mmHg 47%
    12:00 +35°C° 0 mm 1 m/S 754 mmHg 42%
    13:00 +36°C° 0 mm 2 m/S 754 mmHg 44%
    14:00 +36°C° 0 mm 2 m/S 753 mmHg 46%
    15:00 +35°C° 0 mm 3 m/S 752 mmHg 48%
    16:00 +34°C° 0 mm 2 m/S 753 mmHg 54%
    17:00 +31°C° 0 mm 2 m/S 753 mmHg 59%
    18:00 +29°C° 0 mm 1 m/S 754 mmHg 65%
    19:00 +29°C° 0,1 mm 1 m/S 754 mmHg 68%
    20:00 +28°C° 0,1 mm 1 m/S 755 mmHg 70%
    21:00 +27°C° 0,1 mm 1 m/S 756 mmHg 72%
    22:00 +26°C° 0 mm 1 m/S 756 mmHg 73%
    23:00 +26°C° 0 mm 1 m/S 755 mmHg 74%

    28 November, Dienstag

    Zeit Temperatur Niederschläge Wind Luftdruck Luftfeuchtigkeit
    00:00 +25°C° 0 mm 2 m/S 755 mmHg 76%
    01:00 +25°C° 0 mm 2 m/S 755 mmHg 76%
    02:00 +24°C° 0 mm 2 m/S 755 mmHg 76%
    03:00 +24°C° 0 mm 2 m/S 754 mmHg 77%
    04:00 +24°C° 0 mm 2 m/S 755 mmHg 77%
    05:00 +23°C° 0 mm 2 m/S 755 mmHg 77%
    06:00 +23°C° 0 mm 2 m/S 755 mmHg 76%
    07:00 +25°C° 0 mm 2 m/S 756 mmHg 69%
    08:00 +27°C° 0 mm 2 m/S 756 mmHg 62%
    09:00 +29°C° 0 mm 2 m/S 756 mmHg 55%
    10:00 +31°C° 0 mm 2 m/S 756 mmHg 51%
    11:00 +33°C° 0 mm 1 m/S 755 mmHg 47%
    12:00 +34°C° 0 mm 1 m/S 755 mmHg 43%
    13:00 +34°C° 0 mm 1 m/S 754 mmHg 43%
    14:00 +35°C° 0 mm 2 m/S 754 mmHg 43%
    15:00 +35°C° 0 mm 2 m/S 753 mmHg 44%
    16:00 +32°C° 0 mm 2 m/S 753 mmHg 52%
    17:00 +30°C° 0 mm 2 m/S 754 mmHg 60%
    18:00 +27°C° 0 mm 1 m/S 754 mmHg 68%
    19:00 +27°C° 0 mm 1 m/S 755 mmHg 68%
    20:00 +26°C° 0 mm 1 m/S 755 mmHg 69%
    21:00 +26°C° 0 mm 1 m/S 756 mmHg 70%
    22:00 +26°C° 0 mm 1 m/S 756 mmHg 70%
    23:00 +25°C° 0 mm 2 m/S 756 mmHg 69%

    29 November, Mittwoch

    Zeit Temperatur Niederschläge Wind Luftdruck Luftfeuchtigkeit
    00:00 +25°C° 0 mm 2 m/S 755 mmHg 69%
    01:00 +25°C° 0 mm 2 m/S 755 mmHg 68%
    02:00 +25°C° 0 mm 2 m/S 755 mmHg 68%
    03:00 +24°C° 0 mm 2 m/S 755 mmHg 68%
    04:00 +24°C° 0 mm 2 m/S 755 mmHg 69%
    05:00 +24°C° 0 mm 2 m/S 755 mmHg 69%
    06:00 +24°C° 0 mm 2 m/S 756 mmHg 70%
    07:00 +26°C° 0 mm 2 m/S 756 mmHg 66%
    08:00 +28°C° 0 mm 2 m/S 756 mmHg 61%
    09:00 +30°C° 0 mm 2 m/S 756 mmHg 57%
    10:00 +32°C° 0 mm 2 m/S 756 mmHg 54%
    11:00 +35°C° 0 mm 2 m/S 755 mmHg 51%
    12:00 +35°C° 0 mm 1 m/S 755 mmHg 48%
    13:00 +36°C° 0 mm 2 m/S 754 mmHg 50%
    14:00 +35°C° 0 mm 2 m/S 753 mmHg 53%
    15:00 +35°C° 0 mm 2 m/S 753 mmHg 55%
    16:00 +32°C° 0 mm 2 m/S 753 mmHg 61%
    17:00 +30°C° 0 mm 2 m/S 754 mmHg 67%
    18:00 +29°C° 0 mm 1 m/S 754 mmHg 73%
    19:00 +28°C° 0 mm 1 m/S 754 mmHg 75%
    20:00 +28°C° 0 mm 1 m/S 755 mmHg 77%
    21:00 +27°C° 0 mm 1 m/S 756 mmHg 79%
    22:00 +27°C° 0 mm 1 m/S 755 mmHg 79%
    23:00 +27°C° 0 mm 1 m/S 755 mmHg 79%
    Mehr zeigen